www.pogodaiklimat.ru

Погода и климат >> Архив погоды >> Индия >> Пондичерри >> Карайкал


ПОГОДА в Карайкале

  • Прогноз погоды в Карайкале
  • Монитор погоды в Карайкале

АРХИВ ПОГОДЫ в Карайкале

Время (UTC), дата Ветер
(напр.,м/с)
 
Видим.   Явления Облачность Т
(С)
Тd
(С)
f
(%)
Тe
(С)
Тes
(С)
Комфортность P
(гПа)
Po
(гПа)
Тmin
(С)
Tmax
(С)
R
(мм)
R24
(мм)
S
(см)
12 18.06 Ю 3 10 км 5/3 600 м
[Sc Ac trans Ci fib]
+33.4 +27.7 72 +53 +54 опасность
перегрева
1002.8 1002.0 +39.2
15 18.06 ЮЗ 3 4000 м 5/4 600 м
[Sc Ci fib]
+31.4 +25.8 72 +46 +46 опасность
перегрева
1005.1 1004.3
18 18.06 ЮЗ 3 4000 м 8/3 600 м
[Sc Ac trans Ci fib]
+30.6 +26.4 78 +47 +47 опасность
перегрева
1004.8 1004.0
21 18.06 ЮЗ 2 4000 м 5/3 600 м
[Sc Ci fib]
+30.4 +24.4 70 +42 +42 опасность
перегрева
1004.9 1004.1
00 19.06 ЮЗ 2 4000 м 6/5 600 м
[Sc Ci fib]
+29.6 +22.9 67 +39 +39 очень
душно
1004.5 1003.7
03 19.06 З 2 10 км 5/1 600 м
[Sc Ac trans Ci fib]
+31.8 +21.8 55 +40 +45 очень
душно
1004.4 1003.6 +29.1 +39.2
06 19.06 ЮЗ 3 10 км 6/3 600 м
[Sc Ac trans Ci fib]
+36.2 +21.2 42 +44 +53 опасность
перегрева
1004.4 1003.6
09 19.06 ЮВ 3 10 км 5/3 600 м
[Sc Ac trans]
+37.6 +24.0 46 +49 +56 опасность
перегрева
1002.3 1001.5
12 19.06 ЮВ 3 10 км 6/3 600 м
[Sc Ac trans Ci fib]
+32.2 +26.7 73 +50 +50 опасность
перегрева
1000.8 1000.0 +39.6
15 19.06 ЮВ 2 4000 м 6/3 600 м
[Sc Ac trans Ci fib]
+31.4 +24.6 67 +44 +44 опасность
перегрева
1004.3 1003.5
18 19.06 ЮЗ 3 4000 м 4/3 600 м
[Sc Ci fib]
+30.6 +26.1 77 +46 +46 опасность
перегрева
1004.8 1003.7
21 19.06 ЮЗ 4 4000 м 8/5 600 м
[Sc diur, vesp Ac trans]
+30.0 +26.9 84 +47 +47 опасность
перегрева
1003.4 1002.6
00 20.06 ЮЗ 4 4000 м 8/5 600 м
[Sc diur, vesp Ac trans]
+30.0 +22.0 62 +39 +39 очень
душно
1003.7 1002.9
03 20.06 З 5 10 км 4/3 600 м
[Sc Ci fib]
+32.0 +25.2 67 +46 +48 опасность
перегрева
1005.7 1004.9 +29.6 +39.6
06 20.06 З 5 10 км 4/3 600 м
[Sc Ci fib]
+36.4 +25.9 55 +52 +59 опасность
перегрева
1005.6 1004.8
09 20.06 З 3 10 км 5/4 600 м
[Sc diur, vesp Ci fib]
+39.0 +23.0 40 +48 +55 опасность
перегрева
1002.7 1001.9
12 20.06 ЮЗ 2 10 км 5/3 600 м
[Sc Ac trans Ci fib]
+39.0 +23.5 41 +49 +50 опасность
перегрева
1000.8 1000.0 +39.9
15 20.06 Ю 5 4000 м 3/1 600 м
[Sc Ci fib]
+31.6 +26.0 72 +47 +47 опасность
перегрева
1003.4 1002.6
18 20.06 Ю 3 4000 м 3/1 600 м
[Sc Ci fib]
+31.0 +27.7 83 +51 +51 опасность
перегрева
1004.3 1003.5
21 20.06 Ю 3 4000 м 5/4 600 м
[Sc Ci fib]
+30.4 +27.9 87 +50 +50 опасность
перегрева
1003.3 1002.5
00 21.06 З 3 4000 м 6/3 600 м
[Sc Ac trans Ci fib]
+29.0 +22.5 68 +38 +38 очень
душно
1003.2 1002.4
03 21.06 З 5 10 км 9/3 600 м
[Sc Cs]
+30.2 +21.6 60 +38 +41 очень
душно
1005.8 1005.0 +29.0 +39.9
06 21.06 ЮЗ 2 10 км 8/5 600 м
[Sc Ci fib]
+33.6 +21.2 48 +41 +50 опасность
перегрева
1005.1 1004.3
09 21.06 З 3 10 км 5/1 600 м
[Sc Ci fib]
+37.2 +19.6 36 +42 +52 опасность
перегрева
1003.3 1002.5
12 21.06 З 5 10 км 8/3 600 м
[Sc Ac trans Ci fib]
+36.2 +20.1 39 +42 +42 опасность
перегрева
1002.3 1001.5 +37.6
15 21.06 Ю 6 4000 м 5/1 600 м
[Sc Ac trans Ci fib]
+31.6 +24.2 65 +44 +44 опасность
перегрева
1003.4 1002.6
18 21.06 ЮЗ 3 4000 м 6/3 600 м
[Sc Ci fib]
+30.6 +26.7 80 +48 +48 опасность
перегрева
1003.9 1003.1
21 21.06 ЮЗ 5 4000 м 8/4 600 м
[Sc Ci fib]
+30.0 +20.7 57 +37 +37 очень
душно
1002.9 1002.1
00 22.06 З 7 4000 м 8/8 600 м
[Sc]
+29.6 +20.6 58 +36 +36 очень
душно
1004.0 1003.2
03 22.06 ЮЗ 3 10 км 9/5 600 м
[St Ac trans]
+30.2 +24.2 70 +42 +44 опасность
перегрева
1005.0 1004.2 +29.2 +37.6
06 22.06 ЮЗ 5 10 км 8/4 600 м
[Sc Ac trans]
+33.8 +20.7 46 +41 +45 опасность
перегрева
1004.6 1003.8
09 22.06 З 5 10 км 8/4 600 м
[Sc Ac trans Ci fib]
+38.2 +20.9 37 +45 +48 опасность
перегрева
1001.6 1000.8
12 22.06 З 6 10 км 8/4 600 м
[Sc Ac trans Ci fib]
+37.0 +21.2 40 +44 +44 опасность
перегрева
1001.7 1000.9 +39.0
15 22.06 ЮЗ 3 4000 м 9/6 600 м
[Sc Ci fib]
+32.2 +25.5 68 +47 +47 опасность
перегрева
1003.6 1002.8
18 22.06 З 5 4000 м 9/6 600 м
[Sc Ci fib]
+31.4 +22.0 57 +40 +40 очень
душно
1004.0 1003.2
21 22.06 ЮЗ 5 4000 м 8/4 600 м
[Sc Ci fib]
+30.0 +21.0 59 +38 +38 очень
душно
1003.2 1002.4
00 23.06 ЮЗ 4 4000 м 8/5 600 м
[Sc Ci fib]
+29.0 +21.9 66 +37 +37 очень
душно
1003.6 1002.8
03 23.06 З 5 10 км 8/4 600 м
[Sc Ac trans Ci fib]
+31.0 +22.2 60 +40 +42 очень
душно
1004.5 1003.7 +28.6 +39.0
06 23.06 З 3 10 км 8/5 600 м
[Sc Ac trans Ci fib]
+35.2 +21.4 45 +43 +49 опасность
перегрева
1003.6 1002.8
09 23.06 ЮВ 2 10 км 6/4 600 м
[Sc diur, vesp Ac trans Ci fib]
+36.6 +26.1 55 +52 +60 опасность
перегрева
1000.9 1000.1
12 23.06 Ю 3 10 км 9/9 600 м
[Sc]
+32.0 +27.6 78 +52 +52 опасность
перегрева
1000.9 1000.1 +39.2
15 23.06 ЮЗ 5 4000 м зарница 5/3 600 м
[Cb cap Ci fib]
+31.2 +25.9 73 +46 +46 опасность
перегрева
1003.0 1002.2
18 23.06 ЮЗ 8 4000 м зарница 5/3 600 м
[Cb cap Ci fib]
+30.6 +26.7 80 +48 +48 опасность
перегрева
1004.3 1003.5
21 23.06 З 2 4000 м 6/4 600 м
[Sc Ci fib]
+29.8 +26.5 83 +46 +46 опасность
перегрева
1003.0 1002.2
00 24.06 З 3 4000 м 5/1 600 м
[Sc Ac trans Ci fib]
+29.6 +24.6 75 +42 +42 опасность
перегрева
1003.6 1002.8
03 24.06 З 4 10 км 4/3 600 м
[Sc Ci fib]
+32.4 +21.8 54 +41 +44 опасность
перегрева
1005.8 1005.0 +28.6 +39.2
06 24.06 З 5 10 км 5/3 600 м
[Sc Ci fib]
+35.0 +21.2 45 +43 +50 опасность
перегрева
1005.3 1004.5
09 24.06 ЮВ 3 10 км 6/4 600 м
[Sc Ci fib]
+33.6 +26.1 65 +50 +57 опасность
перегрева
1003.1 1002.3
12 24.06 ЮВ 3 10 км 6/4 600 м
[Sc Ci fib]
+31.2 +26.8 78 +49 +49 опасность
перегрева
1002.6 1001.8 +36.0
15 24.06 Ю 5 4000 м зарница 8/3 600 м
[Cb cap Ac trans Ci fib]
+31.2 +25.9 73 +46 +46 опасность
перегрева
1004.6 1003.8
18 24.06 ЮЗ 3 4000 м 6/3 600 м
[Sc Ac trans Ci fib]
+30.6 +26.4 78 +47 +47 опасность
перегрева
1005.6 1004.8
21 24.06 ЮЗ 3 4000 м 6/3 600 м
[Sc Ac trans Ci fib]
+29.8 +27.0 85 +47 +47 опасность
перегрева
1004.4 1003.6
00 25.06 ЮЗ 2 4000 м 5/3 600 м
[Sc Ac trans Ci fib]
+29.0 +23.8 74 +40 +40 очень
душно
1005.2 1004.4
03 25.06 З 3 10 км 8/5 600 м
[Sc diur, vesp Ci fib]
+31.2 +22.1 58 +40 +43 очень
душно
1006.3 1005.5 +29.0 +36.0
06 25.06 З 3 10 км 4/3 600 м
[Sc Ci fib]
+36.4 +20.4 39 +42 +54 опасность
перегрева
1005.8 1005.0
09 25.06 В 3 10 км 9/3 600 м
[Sc Ac trans Ci fib]
+34.8 +26.2 61 +51 +56 опасность
перегрева
1004.3 1003.5

 

Местоположение метеостанции Карайкал (Пондичерри, Индия): широта 10.92 долгота 79.83 высота над уровнем моря 7 м.

В архиве по умолчанию представлена погода в Карайкале за последнюю неделю. Архивные данные за месяц целиком и за предыдущие месяцы, начиная с января 2011 года, Вы можете получить, выбрав интересующий диапазон дат из раскрывающегося списка и нажав кнопку "Ввод!".


*Определитесь, кто Вы:
робот инопланетянин человек

Внимание! Время в таблицах - всемирное. Для получения местного времени необходимо прибавить поправку, которая равна 5.5 ч.

Смотрите также архив погоды в соседних городах и на ближайших метеорологических станциях:

Погода в Нагапаттинаме (Тамилнад, Индия) (17 км)
Погода в Парангипеттае (Тамилнад, Индия) (65 км)
Погода в Танджавуре (Тамилнад, Индия) (78 км)
Погода в Адирампаттинаме (Тамилнад, Индия) (82 км)
Погода в Куддалоре (Тамилнад, Индия) (95 км)
Погода в Пондичерри (Пондичерри, Индия) (117 км)
Погода в Тиручирапалли (Тамилнад, Индия) (122 км)
Погода в Кудумиянмалае (Тамилнад, Индия) (139 км)
Погода в Джафне (Шри Ланка) (143 км)
Погода в Тонди (Тамилнад, Индия) (159 км)

Пояснения к столбцам:

Ветер - указаны скорость ветра в м/с - средняя за 10 мин, порывы в срок и между сроками (в фигурных скобках) и направление, откуда дует ветер: С - северный, СВ - северо-восточный, В - восточный, ЮВ - юго-восточный, Ю - южный, ЮЗ - юго-западный, З - западный, СЗ - северо-западный.
Видимость - горизонтальная дальность видимости в метрах или километрах. При видимости от 1 до 10 км при отсутствии осадков обычно наблюдается дымка, при ухудшении видимости до 1 км и менее - туман. В сухую погоду видимость может ухудшаться дымом, пылью или мглою.
Явления - указаны атмосферные явления, наблюдавшиеся в срок или в последний час перед сроком; фигурными скобками обозначены явления, наблюдавшиеся между сроками (за 1-3 часа до срока); квадратными скобками обозначены град или гололедные отложения с указанием их диаметра в мм.
Облачность - указаны через наклонную черту общая и нижняя облачность в баллах и высота нижней границы облаков в метрах; квадратными скобками обозначены формы облаков: Ci - перистые, Cs - перисто-слоистые, Cc - перисто-кучевые, Ac - высококучевые, As - высокослоистые, Sc - слоисто-кучевые, Ns - слоисто-дождевые, Cu - кучевые, Cb - кучево-дождевые. Подробнее классификацию облаков см. в Атласе облаков (PDF).
T - Температура воздуха - температура, измеренная на высоте 2 м над землей.
Td - Температура точки росы - температура, при понижении до которой содержащийся в воздухе водяной пар достигнет насыщения.
f - Относительная влажность воздуха - влажноcть воздуха, измеренная на высоте 2 м над землей.
Te - Эффективная температура - температура, которую ощущает одетый по сезону человек в тени. Характеристика душности погоды. При расчете учитывается влияние влажности воздуха и скорости ветра на теплоощущения человека.
Tes - Эффективная температура на солнце - температура, которую ощущает человек, с поправкой на солнечный нагрев. Характеристика знойности погоды. Зависит от высоты солнца над горизонтом, облачности и скорости ветра. Ночью, в пасмурную погоду, а также при ветре 12 м/с и более поправка равна нулю.
P - Атмосферное давление - приведенное к уровню моря атмосферное давление.
Po - Атмосферное давление - измеренное на уровне метеостанции атмосферное давление.
Tmin - Минимальная температура - минимум температуры воздуха на высоте 2 м над землей.
Tmax - Максимальная температура - максимум температуры воздуха на высоте 2 м над землей.
R - Количество осадков - Количество выпавших осадков за период времени, мм. При наведении курсора мыши на число - период времени, за который выпало указанное количество осадков.
R24 - Количество осадков - Количество выпавших осадков за 24 часа, мм.
S - Снежный покров - Высота снежного покрова, см. При наведении курсора мыши на число - состояние снежного покрова и степень покрытия местности в баллах.